Location: Carri�res
(48.9069°N, 2.1792°E)
Time: 13:28:01
(UTC+00:00)

COSMO-SKYMED 1 - Pass Details

Date: 17 January 2021
Orbit: 621 x 623 km, 97.9° (Epoch: 26 February)

Event Time Altitude Azimuth Distance (km) Brightness Sun altitude
Exits shadow 18:38:56 - 5° (N) 2,340 5.4 -21.4°
Reaches altitude 10° 18:39:46 10° 3° (N) 2,006 5.1 -21.5°
Maximum altitude 18:43:56 45° 290° (WNW) 849 3.6 -22.2°
Drops below altitude 10° 18:48:04 10° 218° (SW) 1,990 5.7 -22.9°
Sets 18:50:18 0° 212° (SSW) 2,891 6.5 -23.3°
